{"data":{"norad_id":64600,"epoch":"2026-09-19T04:36:19.488672Z","epoch_age_seconds":244578,"freshness":"STALE","line1":"1 64600U 25137G   26262.19189223  .00019773  00000+0  59468-3 0  9998","line2":"2 64600  53.1557 155.5416 0001048  98.9678 261.1444 15.34405556 70378","mean_motion":15.34405556,"eccentricity":0.0001048,"inclination_deg":53.1557,"raan_deg":155.5416,"arg_perigee_deg":98.9678,"mean_anomaly_deg":261.1444,"bstar":0.00059468,"rev_number":7037,"period_min":93.84741826365,"perigee_km":461.96980832751,"apogee_km":463.40364498061,"semimajor_km":6840.8237266541,"source":"CELESTRAK","updated_at":"2026-09-21T09:00:35.365032Z"}}